[[{"header":{"parameterUnit":"m.s-1","parameterCategory":1,"la1":30.2991,"la2":30.254,"lo1":-89.0895,"lo2":-89.0444,"dy":0.0017,"dx":0.0017,"nx":28,"ny":28,"refTime":"2024-08-29T09:00:00:Z","depth":0,"parameterNumber":2,"parameterNumberName":"U-component_of_WINDS"},"data":[0,0,0,0,0,0,0,0,0,0,0,0,0,0,0,0,0,0,0,0,0,0,0,0,0,0,0,0,0,0,0,0,0,0,0,0,0,0,0,0,0,0,0,0,0,0,0,0,0,0,0,0,0,0,0,0,0,0,-3.586,-3.586,0,-3.5893,-3.5894,-3.5894,-3.592,-3.592,-3.592,-3.5921,-3.5955,-3.5956,-3.5957,0,0,0,0,0,0,0,0,0,0,0,0,0,-3.5816,-3.5816,-3.586,-3.586,-3.586,-3.5893,-3.5894,-3.5894,-3.592,-3.592,-3.592,-3.5921,-3.5955,-3.5956,-3.5957,0,0,0,0,0,0,0,0,0,0,0,0,0,-3.5841,-3.5817,-3.5859,-3.5877,-3.5879,-3.5893,-3.5894,-3.5894,-3.592,-3.592,-3.592,-3.5921,-3.5955,-3.5956,-3.5957,-3.5956,0,0,-3.596,-3.596,0,0,0,0,0,0,0,0,-3.5839,-3.5842,-3.5874,-3.5876,-3.5878,-3.5903,-3.5891,-3.5915,-3.592,-3.5904,-3.5921,-3.5921,-3.5937,-3.594,-3.5945,-3.5958,-3.5959,-3.596,-3.5961,-3.5961,-3.5961,0,0,0,0,0,0,0,-3.5837,-3.5841,-3.5873,-3.5875,-3.5877,-3.5883,-3.5887,-3.5896,-3.5918,-3.5906,-3.5908,-3.5911,-3.5939,-3.5944,-3.5946,-3.596,-3.596,-3.5961,-3.5962,-3.5962,-3.597,-3.597,0,0,0,0,0,0,-3.5833,-3.5839,-3.5872,-3.5874,-3.5859,-3.5883,-3.5888,-3.5894,-3.5918,-3.5922,-3.5911,-3.5912,-3.5942,-3.5945,-3.5948,-3.5947,-3.5961,-3.5962,-3.5963,-3.5971,-3.597,-3.597,0,0,0,0,0,0,-3.5832,-3.5836,-3.587,-3.5857,-3.5862,-3.5884,-3.5891,-3.5895,-3.5901,-3.5922,-3.5926,-3.5913,-3.5943,-3.5946,-3.5953,-3.5949,-3.5963,-3.5964,-3.5971,-3.5971,-3.597,-3.5946,0,0,0,0,0,0,-3.5831,-3.5835,-3.5836,-3.5857,-3.5863,-3.5876,-3.5891,-3.5895,-3.5902,-3.5905,-3.5925,-3.5929,-3.5943,-3.5951,-3.5954,-3.595,-3.5964,-3.5972,-3.5971,-3.597,-3.5948,-3.5945,-3.5943,0,0,0,0,0,-3.5829,-3.5828,-3.5836,-3.5839,-3.5864,-3.5876,-3.5879,-3.5895,-3.5902,-3.5902,-3.5916,-3.5928,-3.5949,-3.5952,-3.5955,-3.5952,-3.5972,-3.5971,-3.597,-3.5949,-3.5945,-3.5943,0,0,0,0,0,0,-3.5807,-3.5832,-3.584,-3.5846,-3.5858,-3.588,-3.5881,-3.5892,-3.5903,-3.5904,-3.5924,-3.5929,-3.5933,-3.5943,-3.5946,-3.5951,-3.5962,-3.5962,-3.5944,-3.5941,-3.5939,-3.5936,-3.5965,0,0,0,0,0,-3.5803,-3.581,-3.5831,-3.5835,-3.584,-3.5859,-3.5865,-3.5877,-3.589,-3.5896,-3.591,-3.5922,-3.5931,-3.5937,-3.5947,-3.5949,-3.5953,-3.5948,-3.5945,-3.5943,-3.5943,-3.5943,-3.594,-3.5967,-3.5967,-3.5967,0,0,-3.5794,-3.5809,-3.5813,-3.5831,-3.5842,-3.5848,-3.5864,-3.5871,-3.5876,-3.5897,-3.5904,-3.5914,-3.5929,-3.5933,-3.5936,-3.5942,-3.5936,-3.5942,-3.594,-3.5941,-3.5941,-3.5939,-3.5936,-3.5966,-3.5966,-3.5966,0,0,-3.5782,-3.5794,-3.5798,-3.5808,-3.5823,-3.5835,-3.5836,-3.5855,-3.5863,-3.587,-3.5885,-3.5891,-3.5907,-3.5916,-3.5923,-3.5911,-3.5922,-3.5914,-3.5901,-3.5901,-3.5898,-3.5897,-3.5891,-3.5889,-3.5913,-3.5913,-3.5913,0,-3.577,-3.5781,-3.5798,-3.5803,-3.581,-3.5828,-3.5831,-3.584,-3.5858,-3.5862,-3.5868,-3.5886,-3.5898,-3.5904,-3.59,-3.5906,-3.5906,-3.5912,-3.5897,-3.5896,-3.5894,-3.5889,-3.5887,-3.5912,-3.5912,-3.5912,-3.5912,0,-3.5764,-3.5771,-3.5772,-3.5788,-3.5795,-3.5799,-3.5815,-3.582,-3.583,-3.5841,-3.5847,-3.5861,-3.5873,-3.5875,-3.5886,-3.5881,-3.5884,-3.5894,-3.5905,-3.589,-3.5885,-3.5884,-3.591,-3.591,-3.5911,-3.5911,0,0,-3.5742,-3.5764,-3.5764,-3.5771,-3.5788,-3.5793,-3.5797,-3.5808,-3.5811,-3.5822,-3.5825,-3.5837,-3.5845,-3.5852,-3.5864,-3.5863,-3.5851,-3.5873,-3.5873,-3.5867,-3.5845,-3.5837,-3.5835,-3.5858,-3.5858,-3.5858,-3.5843,0,-3.5732,-3.574,-3.5753,-3.5757,-3.5762,-3.5778,-3.5781,-3.5792,-3.5801,-3.5807,-3.5818,-3.5825,-3.5836,-3.584,-3.5841,-3.5852,-3.5847,-3.5854,-3.5861,-3.5861,-3.5856,-3.5833,-3.5825,-3.5811,-3.5842,-3.5841,-3.5841,0,-3.5722,-3.5731,-3.5734,-3.5748,-3.5751,-3.5754,-3.5763,-3.5769,-3.578,-3.5787,-3.5794,-3.5806,-3.581,-3.582,-3.5824,-3.5829,-3.5832,-3.5838,-3.5838,-3.5839,-3.585,-3.5832,-3.5807,-3.5804,-3.5839,-3.5839,-3.5839,0,-3.5703,-3.5716,-3.5719,-3.5724,-3.5741,-3.5742,-3.5749,-3.5761,-3.5765,-3.5774,-3.5777,-3.5785,-3.579,-3.5796,-3.581,-3.5816,-3.5812,-3.5824,-3.5817,-3.5816,-3.5815,-3.5815,-3.5789,-3.5819,-3.5819,-3.5819,-3.5819,0,-3.5691,-3.5692,-3.571,-3.5712,-3.5713,-3.5728,-3.5729,-3.5737,-3.5747,-3.575,-3.5764,-3.5767,-3.5785,-3.5789,-3.5799,-3.58,-3.5803,-3.5808,-3.581,-3.5806,-3.5805,-3.5808,-3.5809,-3.5818,-3.5818,-3.5818,-3.5819,0,-3.5671,-3.5683,-3.5687,-3.5702,-3.5706,-3.5706,-3.5718,-3.572,-3.5729,-3.5733,-3.5734,-3.5749,-3.5755,-3.5768,-3.5778,-3.5785,-3.5782,-3.5788,-3.5778,-3.578,-3.5772,-3.5772,-3.5747,-3.5743,-3.5775,-3.5775,-3.5775,0,-3.5662,-3.5663,-3.5677,-3.5679,-3.5685,-3.569,-3.5694,-3.5708,-3.5712,-3.5723,-3.5723,-3.5729,-3.5735,-3.5742,-3.5754,-3.576,-3.5766,-3.5756,-3.5767,-3.5761,-3.5764,-3.5763,-3.5763,-3.5754,-3.5753,-3.5753,-3.5753,0,-3.5644,-3.565,-3.5655,-3.5661,-3.5665,-3.5672,-3.5679,-3.568,-3.5695,-3.5698,-3.5703,-3.5708,-3.5716,-3.5721,-3.5729,-3.5736,-3.5746,-3.5749,-3.5747,-3.5743,-3.5737,-3.5738,-3.5771,-3.575,-3.575,-3.575,-3.575,-3.575,-3.5629,-3.563,-3.5639,-3.5643,-3.5649,-3.5654,-3.5656,-3.5665,-3.5669,-3.5676,-3.5684,-3.5687,-3.5696,-3.5707,-3.5713,-3.5716,-3.5721,-3.572,-3.5719,-3.5718,-3.5715,-3.5736,-3.5717,-3.5717,-3.5718,-3.5718,-3.5718,0,-3.5611,-3.5617,-3.5621,-3.5629,-3.5632,-3.564,-3.5647,-3.5649,-3.5652,-3.5659,-3.5663,-3.5668,-3.5672,-3.5683,-3.5688,-3.5688,-3.5693,-3.5689,-3.5689,-3.569,-3.5711,-3.5711,-3.5685,-3.5685,-3.5685,-3.5685,-3.5685,-3.5685,-3.5602,-3.5603,-3.5608,-3.5611,-3.5617,-3.562,-3.5623,-3.5627,-3.5632,-3.5636,-3.564,-3.5646,-3.5654,-3.566,-3.5664,-3.5667,-3.5667,-3.5662,-3.5666,-3.5686,-3.5689,-3.5692,-3.5692,-3.5662,-3.5662,-3.5645,-3.5644,-3.5644]},{"header":{"parameterUnit":"m.s-1","parameterCategory":1,"la1":30.2991,"la2":30.254,"lo1":-89.0895,"lo2":-89.0444,"dy":0.0017,"dx":0.0017,"nx":28,"ny":28,"refTime":"2024-08-29T09:00:00:Z","depth":0,"parameterNumber":3,"parameterNumberName":"V-component_of_WINDS"},"data":[0,0,0,0,0,0,0,0,0,0,0,0,0,0,0,0,0,0,0,0,0,0,0,0,0,0,0,0,0,0,0,0,0,0,0,0,0,0,0,0,0,0,0,0,0,0,0,0,0,0,0,0,0,0,0,0,0,0,6.1809,6.1809,0,6.1819,6.1819,6.182,6.1722,6.1719,6.1716,6.1714,6.1721,6.1724,6.1727,0,0,0,0,0,0,0,0,0,0,0,0,0,6.1701,6.1703,6.1809,6.1809,6.1809,6.1819,6.1819,6.182,6.1722,6.1719,6.1716,6.1713,6.1721,6.1724,6.1727,0,0,0,0,0,0,0,0,0,0,0,0,0,6.1733,6.1704,6.1809,6.1762,6.1758,6.1819,6.1819,6.182,6.1723,6.1719,6.1715,6.1711,6.1719,6.1723,6.1727,6.1834,0,0,6.174,6.1742,0,0,0,0,0,0,0,0,6.1732,6.1737,6.1769,6.1765,6.1761,6.1765,6.1784,6.1824,6.1724,6.1736,6.1714,6.1709,6.1739,6.1741,6.1752,6.1834,6.1834,6.174,6.1743,6.1744,6.1746,0,0,0,0,0,0,0,6.1729,6.1736,6.1813,6.1769,6.1764,6.1739,6.1739,6.1791,6.176,6.1735,6.1728,6.173,6.1736,6.1748,6.1751,6.1834,6.174,6.1744,6.1746,6.1748,6.2003,6.2007,0,0,0,0,0,0,6.1734,6.1735,6.1812,6.1813,6.1736,6.1744,6.1745,6.1768,6.1759,6.1754,6.1734,6.1726,6.1743,6.1747,6.1751,6.1874,6.1744,6.1748,6.1751,6.1999,6.2004,6.2009,0,0,0,0,0,0,6.1732,6.1742,6.1812,6.1772,6.1779,6.1751,6.1777,6.177,6.1782,6.1759,6.1752,6.1752,6.174,6.1746,6.1814,6.1873,6.175,6.1754,6.1994,6.2001,6.2007,6.2121,0,0,0,0,0,0,6.1729,6.1742,6.1782,6.1774,6.1782,6.1875,6.1781,6.1773,6.179,6.1779,6.1774,6.1769,6.1738,6.1808,6.1818,6.1876,6.1757,6.1988,6.1997,6.2004,6.2112,6.2131,6.2147,0,0,0,0,0,6.1726,6.1813,6.1785,6.1795,6.1832,6.1879,6.1883,6.1846,6.1795,6.1835,6.182,6.177,6.1866,6.1816,6.1826,6.1887,6.1984,6.1994,6.2004,6.2104,6.2127,6.2146,0,0,0,0,0,0,6.1828,6.1811,6.1779,6.1867,6.1876,6.1863,6.1911,6.1872,6.1893,6.1882,6.1834,6.1834,6.191,6.1905,6.1851,6.1989,6.1916,6.1928,6.1989,6.201,6.2027,6.2026,6.176,0,0,0,0,0,6.1861,6.1902,6.1885,6.1963,6.1969,6.1941,6.1959,6.193,6.1936,6.1939,6.1928,6.1936,6.1967,6.1989,6.2016,6.2112,6.2108,6.2158,6.2176,6.219,6.2201,6.225,6.2271,6.2041,6.2041,6.2041,0,0,6.1928,6.1925,6.1953,6.1984,6.1987,6.2029,6.1944,6.1992,6.2022,6.1945,6.2009,6.2003,6.2007,6.2089,6.2125,6.2088,6.2264,6.2203,6.2214,6.2217,6.2262,6.2284,6.2303,6.2048,6.2046,6.2045,0,0,6.2073,6.2075,6.2141,6.2146,6.2152,6.2133,6.2149,6.2142,6.2135,6.2199,6.2143,6.2178,6.2234,6.2239,6.2249,6.2398,6.2352,6.2409,6.2499,6.2548,6.2566,6.2581,6.2633,6.2653,6.242,6.242,6.242,0,6.2156,6.2218,6.2179,6.2231,6.2246,6.2181,6.2246,6.2253,6.2268,6.2279,6.2238,6.2307,6.2305,6.2387,6.2424,6.2435,6.2451,6.2408,6.2567,6.2582,6.2596,6.2645,6.2665,6.2427,6.2426,6.2425,6.2425,0,6.2319,6.2363,6.2415,6.2433,6.2454,6.2512,6.2481,6.2507,6.2477,6.2462,6.2527,6.2524,6.255,6.2568,6.2538,6.2646,6.2622,6.2575,6.25,6.2625,6.267,6.2689,6.2436,6.2434,6.2432,6.243,0,0,6.2525,6.2522,6.2541,6.2548,6.2552,6.2584,6.264,6.2667,6.269,6.2703,6.2747,6.2797,6.2753,6.2765,6.2736,6.2779,6.2896,6.2725,6.2725,6.2756,6.3013,6.3047,6.307,6.2866,6.287,6.2873,6.3012,0,6.2664,6.276,6.2728,6.2825,6.2864,6.2804,6.2853,6.286,6.2847,6.2879,6.2864,6.29,6.284,6.2847,6.2887,6.2873,6.2946,6.2863,6.2906,6.2908,6.2904,6.3093,6.3129,6.3261,6.3029,6.3032,6.3035,0,6.2839,6.2861,6.2962,6.2959,6.2975,6.3019,6.3041,6.3072,6.3079,6.3067,6.3081,6.3043,6.3096,6.3025,6.3097,6.3041,6.3057,6.3053,6.3057,6.3058,6.2977,6.3097,6.3302,6.3322,6.3062,6.306,6.3058,0,6.2977,6.3032,6.3099,6.3108,6.3106,6.3139,6.3139,6.3142,6.3161,6.318,6.3191,6.3216,6.323,6.325,6.3219,6.317,6.3296,6.3221,6.3286,6.3287,6.3313,6.3311,6.3522,6.3327,6.3327,6.3327,6.3326,0,6.3135,6.3199,6.3162,6.3203,6.3273,6.3235,6.3305,6.3299,6.3302,6.3341,6.3291,6.3328,6.3286,6.3319,6.3295,6.3359,6.3365,6.3356,6.3349,6.3359,6.336,6.3367,6.3357,6.3332,6.3331,6.333,6.3329,0,6.33,6.3277,6.3347,6.3341,6.3341,6.3393,6.3387,6.3424,6.341,6.3459,6.3468,6.3445,6.3481,6.3453,6.3489,6.3473,6.3556,6.3536,6.3554,6.3548,6.3614,6.3607,6.3834,6.3861,6.3652,6.3654,6.3655,0,6.34,6.3449,6.3449,6.3472,6.3476,6.3513,6.3532,6.3498,6.352,6.3532,6.3568,6.36,6.3624,6.3684,6.367,6.3696,6.3676,6.3754,6.3679,6.3689,6.3675,6.3672,6.3676,6.3768,6.3771,6.3773,6.3774,0,6.3582,6.3569,6.3599,6.3626,6.3651,6.367,6.3685,6.3706,6.3671,6.3698,6.3735,6.3754,6.3791,6.3823,6.3845,6.3845,6.3804,6.3799,6.3814,6.3825,6.3832,6.3828,6.3593,6.3793,6.3791,6.3789,6.3788,6.3788,6.3716,6.3756,6.3763,6.3798,6.3806,6.3822,6.3857,6.3848,6.3878,6.3907,6.3885,6.3929,6.3935,6.396,6.3965,6.3999,6.3966,6.399,6.3996,6.4001,6.401,6.3829,6.4003,6.4002,6.4002,6.4001,6.4001,0,6.3893,6.3895,6.3928,6.3952,6.398,6.3941,6.3956,6.3981,6.4022,6.4031,6.4056,6.4099,6.4131,6.412,6.4148,6.4177,6.4159,6.4185,6.4181,6.4182,6.4038,6.4021,6.4199,6.4199,6.4199,6.4199,6.4199,6.4199,6.3988,6.4054,6.4042,6.4111,6.4112,6.4156,6.4168,6.4182,6.4189,6.424,6.4267,6.426,6.4261,6.4289,6.4316,6.4312,6.4324,6.4357,6.4346,6.4212,6.4192,6.4173,6.4156,6.436,6.4361,6.4486,6.4487,6.4488]}]]